PROFILE

 METAR AND TAF INFORMATION
ADDS - METARS form results

(0545 UTC 22 September 2019)
http://aviationweather.gov/metar/data/
 
TAF GBYD 220530Z 2206/2312 11006KT 9999 TS SCT015 FEW025CB BECMG 2207/2211 NSW SCT015 PROB40 TEMPO 2216/2220 4500 TSRA BKN015 FEW025CB 

 AIRPORT MAP

 RUNWAY INFORMATION
Runway 14 Runway length 11811 ft Runway width 148 ft
Runway elevation 88 ft Runway displaced threshold 0 ft Runway heading 131
Runway 32 Runway length 11811 ft Runway width 148 ft
Runway elevation 74 ft Runway displaced threshold 0 ft Runway heading 311

 AIRPORT FREQUENCIES
Type APP Name APP Frequency 121.3 MHZ
Type GND Name GND Frequency 121.9 MHZ
Type TWR Name TWR Frequency 118.3 MHZ

 AIRPORT NEAR NAVIGATION AIDS
Type VOR-DME Name Banjul Frequency 112900 KHZ
Type NDB Name Banjul Frequency 256 KHZ